Weather History for Belleville, IL

Change the Weather History Date:

Sunday, February 3, 2013

  Actual Average Record
Temperature  
Mean Temperature 28 °F -  
Max Temperature 33 °F 39 °F 67 °F (1992)
Min Temperature 23 °F 22 °F -12 °F (1985)
Degree Days  
Heating Degree Days 37    
Moisture  
Dew Point 25 °F    
Average Humidity 88    
Maximum Humidity 100    
Minimum Humidity 52    
Precipitation  
Precipitation 0.18 in - - ()
Sea Level Pressure  
Sea Level Pressure 30.09 in    
Wind  
Wind Speed 3 mph (South)    
Max Wind Speed 15 mph    
Max Gust Speed 24 mph    
Visibility 6 miles    
Events Fog , Snow    
Averages and records for this station are not official NWS values.
T = Trace of Precipitation, MM = Missing Value Source: NWS Daily Summary

Daily Weather History Graph

Daily Weather History Graph

Search for Another Location

Airport:

Trip Planner

Search our weather history database for the weather conditions in past years. The results will help you decide how hot, cold, wet, or windy it might be!

Date:

Astronomy

Feb. 03, 2013 Rise Set
Actual Time 7:02 AM CST 5:24 PM CST
Civil Twilight 6:34 AM CST 5:51 PM CST
Nautical Twilight 6:03 AM CST 6:23 PM CST
Astronomical Twilight 5:32 AM CST 6:54 PM CST
Moon 12:30 AM CST (2/3) 11:01 AM CST (2/3)
Length of Visible Light 11h 16m
Length of Day
10h 21m
Waning Gibbous, 48% of the Moon is Illuminated
Feb 3
Waning Gibbous
Feb 10
New
Feb 17
First Quarter
Feb 25
Full
Mar 4
Last Quarter

Hourly Weather History & Observations

Time (CST) Temp. Windchill Dew Point Humidity Pressure Visibility Wind Dir Wind Speed Gust Speed Precip Events Conditions
12:02 AM 28.4 °F - 28.4 °F 100% 30.08 in 1.5 mi Calm Calm - N/A Snow Light Snow
12:03 AM 28.4 °F - 28.4 °F 100% 30.08 in 1.5 mi Calm Calm - N/A Snow Light Snow
12:07 AM 28.4 °F 24.6 °F 28.4 °F 100% 30.08 in 1.5 mi ESE 3.5 mph - N/A Snow Light Snow
12:08 AM 28.4 °F 24.6 °F 28.4 °F 100% 30.08 in 1.2 mi ESE 3.5 mph - N/A Snow Light Snow
12:14 AM 28.4 °F 24.6 °F 28.4 °F 100% 30.08 in 1.0 mi ESE 3.5 mph - N/A Snow Light Snow
12:15 AM 28.4 °F 24.6 °F 28.4 °F 100% 30.07 in 1.0 mi SE 3.5 mph - N/A Snow Light Snow
12:17 AM 28.4 °F 24.6 °F 28.4 °F 100% 30.07 in 1.0 mi SSE 3.5 mph - N/A Snow Light Snow
12:23 AM 28.4 °F 23.3 °F 28.4 °F 100% 30.07 in 1.0 mi SSE 4.6 mph - N/A Snow Light Snow
12:28 AM 28.4 °F 24.6 °F 28.4 °F 100% 30.07 in 1.0 mi SSE 3.5 mph - N/A Snow Light Snow
12:36 AM 28.4 °F 24.6 °F 28.4 °F 100% 30.07 in 1.2 mi SE 3.5 mph - N/A Snow Light Snow
12:46 AM 28.4 °F 24.6 °F 28.4 °F 100% 30.07 in 0.8 mi ESE 3.5 mph - N/A Snow Light Snow
12:52 AM 28.4 °F 24.6 °F 28.4 °F 100% 30.06 in 0.8 mi SE 3.5 mph - N/A Snow Light Snow
12:53 AM 28.4 °F 23.3 °F 28.4 °F 100% 30.06 in 0.5 mi SE 4.6 mph - N/A Fog , Snow Light Freezing Fog
12:55 AM 28.6 °F 24.8 °F 28.4 °F 99% 30.07 in 0.8 mi SE 3.5 mph - 0.09 in Snow Light Snow
1:04 AM 28.4 °F 23.3 °F 28.4 °F 100% 30.05 in 0.5 mi SE 4.6 mph - N/A Fog , Snow Light Freezing Fog
1:06 AM 28.4 °F 23.3 °F 28.4 °F 100% 30.05 in 0.8 mi SE 4.6 mph - N/A Snow Light Snow
1:14 AM 28.4 °F - 28.4 °F 100% 30.05 in 1.2 mi Calm Calm - N/A Snow Light Snow
1:16 AM 28.4 °F - 28.4 °F 100% 30.05 in 1.2 mi Calm Calm - N/A Snow Light Snow
1:23 AM 28.4 °F - 28.4 °F 100% 30.05 in 3.0 mi Calm Calm - N/A Snow Light Snow
1:25 AM 28.4 °F 24.6 °F 28.4 °F 100% 30.05 in 3.0 mi Variable 3.5 mph - N/A Snow Light Snow
1:33 AM 28.4 °F - 28.4 °F 100% 30.05 in 5.0 mi Calm Calm - N/A Snow Light Snow
1:54 AM 28.4 °F - 28.4 °F 100% 30.05 in 7.0 mi Calm Calm - N/A   Overcast
1:55 AM 28.8 °F - 28.6 °F 99% 30.05 in 9.0 mi Calm Calm - 0.08 in   Overcast
2:03 AM 28.4 °F - 28.4 °F 100% 30.04 in 6.0 mi Calm Calm - N/A   Overcast
2:19 AM 28.4 °F - 28.4 °F 100% 30.04 in 8.0 mi Calm Calm - N/A   Overcast
2:27 AM 28.4 °F - 28.4 °F 100% 30.04 in 9.0 mi Calm Calm - N/A   Overcast
2:55 AM 28.9 °F - 28.8 °F 99% 30.05 in 8.0 mi Calm Calm - N/A   Overcast
3:18 AM 28.4 °F - 28.4 °F 100% 30.03 in 8.0 mi Calm Calm - N/A   Overcast
3:55 AM 29.1 °F - 28.9 °F 99% 30.03 in 7.0 mi Calm Calm - N/A   Overcast
4:09 AM 28.4 °F 24.6 °F 26.6 °F 93% 30.03 in 7.0 mi WSW 3.5 mph - N/A   Mostly Cloudy
4:33 AM 26.6 °F 22.6 °F 26.6 °F 100% 30.04 in 9.0 mi Variable 3.5 mph - N/A   Scattered Clouds
4:55 AM 26.2 °F 22.1 °F 26.1 °F 99% 30.03 in 10.0 mi Variable 3.5 mph - N/A   Partly Cloudy
5:55 AM 31.5 °F 24.9 °F 30.0 °F 94% 30.04 in 10.0 mi WNW 6.9 mph - N/A   Overcast
6:55 AM 31.3 °F 22.7 °F 28.0 °F 88% 30.05 in 10.0 mi NW 10.4 mph 18.4 mph N/A   Scattered Clouds
7:55 AM 31.3 °F 22.7 °F 26.6 °F 83% 30.08 in 10.0 mi WNW 10.4 mph - N/A   Clear
8:55 AM 31.6 °F 21.6 °F 26.2 °F 80% 30.10 in 10.0 mi WNW 13.8 mph 24.2 mph N/A   Overcast
9:40 AM 32.0 °F 22.5 °F 24.8 °F 75% 30.13 in 10.0 mi WNW 12.7 mph 23.0 mph N/A   Overcast
9:55 AM 30.7 °F 20.0 °F 24.4 °F 77% 30.14 in 10.0 mi NW 15.0 mph 23.0 mph N/A   Overcast
10:55 AM 30.4 °F 20.5 °F 23.0 °F 74% 30.18 in 10.0 mi WNW 12.7 mph 20.7 mph N/A   Overcast
11:55 AM 30.6 °F 20.7 °F 22.1 °F 71% 30.19 in 10.0 mi NW 12.7 mph 19.6 mph 0.01 in   Overcast
12:26 PM 32.0 °F 21.6 °F 21.2 °F 64% 30.20 in 10.0 mi WNW 15.0 mph 21.9 mph N/A   Scattered Clouds
12:55 PM 30.9 °F 20.7 °F 17.6 °F 58% 30.20 in 10.0 mi NW 13.8 mph 20.7 mph N/A   Clear
1:55 PM 32.2 °F 23.2 °F 17.2 °F 54% 30.19 in 10.0 mi WNW 11.5 mph 18.4 mph N/A   Clear
2:55 PM 32.7 °F 26.4 °F 16.7 °F 52% 30.19 in 10.0 mi NW 6.9 mph - N/A   Clear
3:55 PM 33.3 °F 27.1 °F 18.1 °F 54% 30.18 in 10.0 mi WNW 6.9 mph - N/A   Clear
4:55 PM 31.6 °F - 16.9 °F 54% 30.17 in 10.0 mi Calm Calm - N/A   Clear
5:55 PM 28.8 °F - 17.4 °F 63% 30.17 in 10.0 mi Calm Calm - N/A   Clear
6:55 PM 23.5 °F - 18.9 °F 82% 30.16 in 10.0 mi Calm Calm - N/A   Clear
7:55 PM 24.8 °F 17.9 °F 17.2 °F 73% 30.14 in 10.0 mi SE 5.8 mph - N/A   Clear
8:55 PM 24.3 °F - 17.2 °F 75% 30.12 in 10.0 mi Calm Calm - N/A   Clear
9:55 PM 24.4 °F 20.1 °F 16.0 °F 70% 30.11 in 10.0 mi SE 3.5 mph - N/A   Clear
10:55 PM 24.4 °F 17.5 °F 16.7 °F 72% 30.09 in 10.0 mi ESE 5.8 mph - N/A   Clear
11:55 PM 23.5 °F 16.4 °F 16.7 °F 75% 30.06 in 10.0 mi ESE 5.8 mph - N/A   Clear